FLOCK 4S-13 (47472 NORAD) Tracking and Keplerian Element Data
This shows tracking and keplerian element data for the satellite.
Feedback or suggestion? Click here.
Element | Value |
Catalog | 47472 |
Name | FLOCK 4S-13 |
Epoch Orbit | 1198 |
Epoch Day | 101.91124215 |
Epoch Year | 2021 |
RAAN | 164.2549 |
Inclination | 97.5017 |
Eccentricity | 0.0008098 |
Argument of Perigee | 356.498 |
Mean Anonmoly | 3.6192 |
Mean Motion | 15.11901282 |
Decay Rate | 2.245E-05 |
L1 | 1 47472U 21006BM 21101.91124215 .00002245 00000-0 13481-3 0 9996 |
L2 | 2 47472 97.5017 164.2549 0008098 356.4980 3.6192 15.11901282 11986 |
Live tracking and technical data element details for FLOCK 4S-13 (NORAD 47472). FLOCK 4S-13 can be tracked NOW for your location showing map with azimuth and elevation plus other details from your city location.
Track the satellite on the map from your city or location and see movement details for azimuth, elevation, latitude, longitude, range, height, and movement on the map or in text.
IsCatalogInMostPopularTable: catalog: 47472, numindb: 15
Update: records affected: 1
GetName: 47472 FLOCK 4S-13
Hit Count: updated at: Tue, 13 Apr 2021 04:10:45 GMT